User: anonymous   Login
Location: Bouillancy
(49.1149°N, 2.9308°E)
Time: 00:57:08
(UTC+00:00)
Language:

Meteor 1-21 Rocket - Orbit

View from above orbital plane
View from above orbital plane
View from above satellite
View from above satellite

Ground track
Ground track

The orbit data is extracted from the following two-line orbital elements,

1  7715U 75023B   20336.54059468 +.00000003 +00000-0 -56960-5 0  9997
2  7715 081.2218 084.0106 0050952 177.9749 182.1636 14.06789262343044
Epoch (UTC): 01 December 2020 12:58:27
Eccentricity: 0.0050952
inclination: 81.2218°
perigee height: 833 km
apogee height: 907 km
right ascension of ascending node: 84.0106°
argument of perigee: 177.9749°
revolutions per day: 14.06789262
mean anomaly at epoch: 182.1636°
orbit number at epoch: 34304

The dashed part of the orbit path shows where the satellite is in the earth's shadow,  

DLR